Other Surface Observations
Issued by NWS Upton, NY

Current Version | Previous Version | Text Only | Print | Product List | Glossary On
Versions: 1 2 3 4 5 6 7 8 9 10 11 12 13 14 15 16 17 18 19 20 21 22 23 24 25 26 27 28 29 30 31 32 33 34 35 36 37 38 39 40 41 42 43 44 45 46 47 48 49 50
000
SXUS51 KOKX 250657
OSOOKX
New York City Metropolitan Area Weather Roundup
National Weather Service New York NY
300 AM EDT SUN SEP 25 2022

CITY           SKY/WX    TMP DP  RH WIND       PRES   REMARKS
Central Park   MOCLDY    61  45  55 SW3       29.89F
LaGuardia Arpt MOCLDY    62  44  51 SW6       29.86F
Kennedy Intl   CLOUDY    62  49  62 SW6       29.88F
Newark Liberty CLOUDY    59  45  59 W7        29.87F
Teterboro Arpt MOCLDY    53  47  79 CALM      29.86F
Bronx Lehman C   N/A     61  45  55 SW6         N/A
Queens College   N/A     61  46  59 SW5         N/A
Breezy Point     N/A     61 N/A N/A W8          N/A
Brooklyn Coll    N/A     61  46  59 SW7         N/A
Staten Island    N/A     59  46  63 S3          N/A

>>>>>>>>>>>>>>>>>>>>>>>>>>>>>>>>> KEY <<<<<<<<<<<<<<<<<<<<<<<<<<<<<<<
> SKY/WX - Sky Condition/Present    : R : WCI - Wind Chill Index    <
>          Weather                  : E : VSB - Visibility in Miles <
> TMP    - Temperature in Deg F     : M : HX  - Heat Index          <
> DP     - Dew Point Temperature    : A : TC  - Temperature in      <
> RH     - Relative Humidity        : R :       Celsius             <
> WIND   - Direction/Speed (mph)    : K : VRB - Variable Wind Dir   <
> PRES   - Pressure (in Hg)         : S :                           <
>>>>>>>>>>>>>>>>>>>>>>>>>>>>>>>>> KEY <<<<<<<<<<<<<<<<<<<<<<<<<<<<<<<



USA.gov is the U.S. government's official web portal to all federal, state and local government web resources and services.